STARLINK-1190 (45083 NORAD) Tracking and Keplerian Element Data

This shows tracking and keplerian element data for the satellite.

Feedback or suggestion? Click here.




ElementValue
Catalog45083
NameSTARLINK-1190
Epoch Orbit175
Epoch Day188.91667824
Epoch Year2020
RAAN227.166
Inclination52.9997
Eccentricity0.0001232
Argument of Perigee109.4186
Mean Anonmoly140.658
Mean Motion15.05562566
Decay Rate0.0002462
L11 45083U 20006AR 20188.91667824 .00024620 00000-0 17038-2 0 9995
L22 45083 52.9997 227.1660 0001232 109.4186 140.6580 15.05562566 1752

Live tracking and technical data element details for STARLINK-1190 (NORAD 45083). STARLINK-1190 can be tracked NOW for your location showing map with azimuth and elevation plus other details from your city location.

Track the satellite on the map from your city or location and see movement details for azimuth, elevation, latitude, longitude, range, height, and movement on the map or in text.







IsCatalogInMostPopularTable: catalog: 45083, numindb: 35
Update: records affected: 1



GetName: 45083 STARLINK-1190

Hit Count: updated at: Wed, 08 Jul 2020 03:29:56 GMT